Wind_Speed
22 27 28 27 28 27 25 26 28 28 27 27 25 21 20 20 20 20 19 18 16 15 12 10 8 7 7 5 5 8 10 10 11 10 10 12 15 18 18 14 13 15 17
20 21 27 30 30 31 30 28 27 29 30 30 28 25 22 23 21 21 21 20 19 18 16 14 12 10 9 9 7 8 10 11 12 12 10 11 13 16 17 13 10 12 14
19 21 22 27 32 33 34 33 31 29 30 30 31 28 25 26 24 21 22 21 20 21 19 17 15 14 12 12 12 9 10 12 13 13 12 11 12 14 15 11 8 9 11
22 23 23 25 27 33 36 36 37 35 31 30 31 31 28 28 27 25 23 22 22 23 22 20 19 17 15 14 15 13 11 12 13 13 14 13 13 13 14 11 7 6 8
25 26 25 27 28 30 34 38 39 39 38 35 32 32 32 29 29 28 26 24 24 23 24 23 22 21 19 17 16 16 14 13 15 14 14 14 14 14 13 11 8 6 7
28 29 28 27 28 31 32 35 39 40 41 40 37 34 33 32 31 30 29 28 27 25 25 25 24 24 22 21 18 18 18 16 15 15 15 14 14 14 14 13 10 9 9
31 31 30 30 29 32 34 35 36 40 41 42 42 40 38 35 33 33 32 31 30 28 26 26 26 26 26 25 23 21 20 19 18 15 16 15 15 15 15 15 14 12 11
35 34 34 33 32 31 34 36 35 37 40 44 44 43 41 40 38 36 35 34 34 32 31 30 29 30 28 28 27 25 22 22 21 20 18 17 17 16 15 16 17 16 16
41 40 40 38 36 34 32 36 38 37 38 39 43 44 45 44 43 40 39 38 37 36 35 34 33 33 32 31 30 29 27 25 24 24 22 20 20 19 18 18 19 19 19
47 46 44 42 39 38 35 35 39 41 40 39 39 39 44 44 44 44 45 44 41 39 39 38 37 37 35 34 33 32 31 30 28 27 27 26 24 24 23 23 22 23 23
49 47 45 44 44 42 41 39 40 42 44 42 40 39 38 39 40 40 41 42 44 44 42 42 42 40 39 38 36 35 34 34 33 31 29 31 29 28 28 29 28 28 28
51 49 48 47 47 47 45 44 43 44 45 45 44 42 41 40 38 39 40 41 42 42 42 43 43 44 44 41 40 39 38 37 37 36 33 32 32 29 28 30 30 30 30
54 51 51 51 51 50 49 48 46 45 45 46 46 45 45 43 43 43 44 43 42 43 43 44 46 47 47 46 44 43 42 41 40 40 38 35 33 33 30 29 29 28 28
53 54 53 53 52 51 50 48 46 46 44 44 44 44 45 44 45 46 45 44 44 46 47 48 47 46 48 50 49 47 46 44 43 42 41 39 36 33 33 28 24 26 28
50 51 52 51 50 49 48 47 46 46 45 44 44 44 43 44 46 47 47 47 48 50 51 52 51 50 51 51 51 51 49 48 46 45 43 42 40 36 33 32 30 30 33
47 49 49 48 47 47 46 46 45 46 45 44 43 44 44 45 47 48 49 50 51 52 51 51 52 51 53 54 54 54 53 48 48 47 46 43 42 41 37 35 35 36 35
46 48 49 47 46 44 43 44 44 44 44 44 44 44 45 46 48 51 51 51 51 51 51 51 53 52 53 55 56 61 64 46 52 50 48 45 43 42 41 40 38 37 37
48 49 48 46 45 43 42 42 42 42 42 42 43 45 44 46 48 50 51 53 53 54 54 54 56 57 56 56 58 59 59 47 50 51 49 46 44 43 41 42 41 40 38
48 48 47 47 45 44 43 42 42 43 42 41 41 42 44 47 47 49 52 53 53 54 54 54 56 58 59 61 60 63 60 52 52 51 52 47 44 43 43 43 41 41 40
47 46 47 46 45 45 44 44 44 43 42 41 41 43 43 44 45 48 49 50 52 50 52 54 53 54 55 57 58 59 58 62 50 52 51 47 44 45 44 43 42 42 41
50 48 46 46 45 46 45 44 44 43 42 41 41 40 40 43 44 45 48 50 48 49 48 49 49 51 45 45 53 52 62 51 52 52 48 46 46 44 43 44 44 43 42
54 51 49 48 48 46 46 46 45 43 42 41 41 40 39 42 43 46 45 46 50 48 48 47 48 49 48 52 49 53 58 51 48 49 46 46 46 43 44 45 44 43 42
59 56 54 52 50 49 48 47 46 45 44 43 43 42 37 38 40 42 43 41 43 43 44 45 47 43 44 45 47 50 59 48 46 47 46 46 46 45 45 44 43 43 43
62 59 57 55 53 51 50 49 47 46 45 44 43 42 38 40 38 39 40 42 45 43 43 41 36 35 41 37 43 51 46 43 44 45 47 47 46 43 44 44 43 43 44
63 61 59 57 56 55 52 50 49 47 45 42 43 43 41 38 37 38 39 41 39 38 41 41 37 32 29 32 38 44 36 42 45 45 47 48 44 43 43 43 44 45 47
58 60 59 58 56 55 53 51 49 47 45 43 42 43 41 35 38 39 39 38 28 29 36 40 29 34 29 28 46 47 44 42 43 44 46 43 40 41 43 44 45 52 57
Wind_Direction
233 235 237 238 237 240 242 242 242 242 245 247 248 245 248 251 248 248 250 253 257 258 259 270 277 283 283 255 254 272 281 297 309 324 338 346 356 358 360 6 23 36 35
241 239 239 241 240 240 241 245 245 244 245 249 250 249 248 252 252 249 247 249 253 258 259 262 272 277 279 267 247 272 272 280 295 307 318 331 344 351 358 3 23 36 37
244 248 246 245 240 241 241 242 245 247 246 248 253 249 245 248 252 251 252 249 250 254 257 260 262 271 277 276 266 263 269 263 279 295 303 308 320 339 353 359 19 27 33
251 249 250 250 248 243 243 243 242 244 248 248 249 252 250 249 250 254 254 255 252 254 256 258 261 263 270 274 273 270 272 260 262 281 294 297 301 319 337 348 360 14 14
257 253 250 250 252 250 246 245 244 243 243 247 248 250 251 250 253 253 254 256 256 255 256 257 261 262 264 271 272 273 270 265 263 269 280 288 292 297 315 331 336 339 345
262 262 259 253 250 253 253 249 246 246 244 243 246 248 250 250 250 252 253 255 257 259 259 258 259 262 264 267 271 270 272 265 255 269 273 280 286 290 298 309 315 322 327
264 263 264 264 259 252 252 254 252 247 246 246 244 244 246 249 250 252 253 256 258 259 259 260 260 260 262 263 266 271 269 265 263 259 272 277 280 283 287 293 300 305 312
262 261 260 260 260 259 254 254 257 254 249 247 245 245 245 247 250 251 251 253 256 257 257 258 258 259 259 261 264 266 270 267 262 261 262 271 276 278 279 282 286 295 299
261 259 257 256 256 258 258 256 255 255 253 253 248 248 246 247 250 250 251 252 253 255 258 258 258 259 259 259 260 263 265 268 265 264 262 262 268 272 275 277 280 283 288
260 259 258 259 258 258 260 257 257 258 256 254 254 252 250 250 251 251 252 253 253 255 256 259 259 261 261 261 260 261 263 265 266 264 263 262 263 269 272 274 277 281 286
257 257 257 257 257 256 257 257 258 258 256 254 255 255 247 250 252 252 253 254 253 253 255 259 260 259 260 262 262 261 260 261 263 264 265 265 264 265 270 274 278 280 284
256 255 256 257 257 257 257 256 254 256 258 256 254 255 256 253 255 250 258 257 255 256 257 258 259 260 260 260 262 261 260 260 261 263 264 265 266 267 271 276 279 282 284
256 256 256 257 256 255 256 256 256 255 256 258 257 256 257 258 259 258 259 261 259 260 262 260 261 262 261 260 261 262 262 261 261 261 263 265 265 267 266 271 278 282 286
254 253 255 255 255 254 255 255 255 254 254 255 255 256 256 257 258 259 259 258 260 261 263 264 261 260 261 260 261 261 261 260 259 261 261 262 265 266 269 266 272 278 282
252 251 251 252 252 253 253 252 252 253 252 252 254 256 258 260 260 260 259 258 260 263 262 261 261 261 259 259 258 259 259 259 259 259 260 260 262 264 266 265 267 270 273
248 248 249 249 251 252 251 249 249 252 252 252 254 257 258 259 260 259 257 258 259 259 260 260 260 261 261 258 257 258 256 254 259 257 259 260 260 261 264 263 265 269 270
245 244 245 247 249 249 249 248 248 249 251 253 254 255 256 259 260 259 258 260 263 262 260 261 260 261 260 260 256 256 257 248 253 255 255 257 259 260 263 266 266 267 272
242 242 243 244 244 244 245 246 248 249 250 254 256 258 257 261 262 262 261 262 262 262 262 262 264 264 262 261 258 253 256 245 250 253 254 253 256 259 261 263 265 267 271
242 242 242 242 242 242 243 245 248 250 252 254 258 259 263 264 262 262 262 261 262 264 265 265 265 261 259 256 255 254 253 244 240 247 250 250 253 256 259 261 265 267 268
241 242 242 242 244 246 245 245 246 249 251 253 256 258 262 262 267 269 267 265 265 265 265 264 265 264 261 256 255 252 244 237 235 242 247 247 249 252 257 261 264 266 268
241 240 242 243 244 246 249 250 251 252 254 257 259 262 265 265 266 269 268 265 264 263 263 262 264 264 259 259 257 262 252 225 235 238 241 245 247 252 256 259 261 264 270
242 241 241 242 244 246 248 249 252 255 257 260 262 265 269 272 274 270 267 262 262 258 258 260 259 260 259 255 260 257 241 224 228 235 238 244 247 251 255 259 264 269 271
242 242 242 242 243 244 246 247 249 251 254 258 261 265 269 274 273 273 268 263 266 265 264 260 264 266 253 255 256 260 241 221 226 233 239 245 247 252 257 261 265 269 271
241 241 241 242 243 244 246 247 249 250 254 258 262 266 267 267 276 275 274 272 265 267 262 263 258 259 245 248 257 239 220 223 229 234 241 246 250 254 258 261 264 268 272
239 240 240 240 241 243 244 246 248 251 253 257 260 264 266 269 272 275 273 268 267 269 262 258 253 255 247 254 244 222 222 233 233 236 243 247 252 256 261 264 266 272 279
238 239 240 240 240 242 243 245 247 250 251 255 257 261 264 268 269 275 276 265 262 273 277 256 254 247 245 238 228 223 223 227 233 242 247 251 255 258 261 268 272 272 271
Height
5867 5870 5872 5875 5877 5879 5881 5884 5887 5889 5891 5892 5895 5899 5900 5900 5902 5904 5905 5906 5908 5907 5907 5907 5906 5906 5905 5903 5904 5904 5903 5904 5903 5903 5902 5900 5898 5895 5893 5891 5889 5888 5885
5864 5865 5867 5869 5872 5874 5877 5879 5882 5884 5886 5887 5890 5894 5897 5897 5899 5900 5901 5903 5904 5905 5905 5905 5905 5905 5903 5903 5901 5901 5902 5902 5902 5902 5901 5900 5898 5896 5893 5892 5890 5888 5886
5860 5861 5863 5864 5867 5868 5872 5874 5876 5879 5881 5883 5885 5888 5892 5893 5894 5896 5897 5899 5901 5901 5902 5903 5903 5903 5902 5901 5900 5899 5899 5899 5900 5900 5900 5899 5897 5896 5893 5891 5890 5889 5887
5855 5857 5858 5859 5861 5863 5865 5868 5870 5873 5875 5878 5880 5882 5886 5889 5891 5892 5894 5895 5897 5897 5899 5900 5900 5900 5900 5899 5899 5897 5897 5896 5897 5897 5898 5897 5897 5895 5893 5891 5890 5888 5887
5848 5851 5853 5854 5855 5857 5859 5862 5864 5866 5869 5871 5874 5876 5879 5883 5886 5888 5889 5891 5892 5893 5894 5896 5896 5897 5897 5897 5896 5896 5894 5894 5895 5895 5895 5895 5894 5894 5893 5891 5889 5888 5887
5841 5843 5846 5848 5850 5851 5853 5855 5858 5860 5863 5865 5868 5870 5873 5877 5879 5882 5884 5885 5887 5889 5889 5891 5892 5893 5894 5894 5893 5893 5893 5891 5890 5892 5892 5892 5891 5891 5891 5890 5888 5886 5885
5835 5837 5839 5841 5844 5845 5846 5847 5850 5853 5856 5858 5861 5863 5866 5869 5872 5875 5878 5880 5881 5883 5884 5885 5886 5888 5888 5889 5890 5889 5889 5889 5889 5887 5889 5889 5888 5888 5888 5888 5886 5884 5884
5827 5829 5831 5833 5835 5838 5839 5840 5842 5845 5848 5850 5853 5855 5859 5862 5865 5868 5871 5873 5875 5876 5878 5879 5880 5881 5882 5884 5885 5885 5886 5885 5885 5885 5884 5885 5885 5885 5884 5884 5883 5883 5881
5818 5820 5822 5824 5827 5829 5832 5834 5835 5837 5840 5842 5845 5848 5851 5854 5857 5860 5863 5865 5867 5869 5871 5873 5874 5875 5876 5877 5879 5880 5881 5881 5881 5881 5881 5880 5881 5881 5880 5880 5879 5879 5877
5810 5811 5813 5816 5819 5822 5824 5826 5827 5829 5832 5835 5836 5839 5842 5846 5849 5852 5855 5857 5859 5861 5864 5865 5867 5868 5870 5871 5872 5874 5875 5876 5876 5876 5876 5876 5876 5876 5876 5875 5874 5874 5873
5799 5801 5804 5807 5809 5812 5815 5817 5820 5821 5823 5827 5829 5830 5835 5838 5841 5843 5846 5847 5850 5853 5855 5857 5859 5861 5862 5864 5865 5867 5868 5869 5870 5870 5870 5870 5870 5870 5870 5870 5870 5869 5868
5787 5791 5794 5796 5799 5802 5805 5807 5809 5812 5814 5816 5820 5823 5826 5830 5833 5835 5837 5838 5841 5845 5847 5849 5850 5852 5854 5856 5857 5859 5860 5862 5863 5864 5864 5864 5864 5864 5864 5864 5864 5864 5863
5777 5781 5783 5785 5788 5791 5794 5797 5800 5802 5805 5807 5810 5813 5816 5821 5823 5825 5828 5830 5831 5834 5836 5839 5841 5842 5844 5846 5848 5850 5852 5854 5855 5856 5857 5857 5858 5858 5857 5857 5858 5858 5857
5765 5768 5771 5773 5776 5779 5783 5786 5789 5793 5795 5798 5800 5803 5806 5809 5811 5813 5816 5819 5821 5822 5825 5827 5830 5832 5833 5836 5838 5840 5843 5844 5847 5848 5849 5849 5850 5850 5850 5850 5851 5851 5851
5752 5755 5758 5762 5765 5768 5771 5774 5778 5782 5785 5787 5790 5793 5796 5798 5800 5802 5804 5807 5810 5811 5813 5814 5816 5820 5822 5823 5826 5829 5832 5835 5837 5838 5839 5840 5841 5842 5843 5843 5843 5843 5843
5740 5743 5747 5751 5754 5757 5760 5763 5768 5771 5774 5777 5780 5783 5785 5787 5788 5790 5793 5795 5797 5798 5800 5802 5803 5806 5808 5810 5813 5817 5819 5822 5826 5827 5829 5831 5832 5833 5834 5834 5835 5835 5835
5729 5733 5736 5740 5743 5746 5749 5752 5757 5761 5764 5767 5769 5772 5775 5776 5777 5778 5780 5782 5784 5785 5787 5789 5790 5793 5794 5796 5798 5803 5804 5807 5813 5816 5818 5820 5821 5823 5824 5825 5825 5825 5826
5718 5721 5725 5729 5732 5735 5738 5742 5746 5750 5754 5756 5758 5760 5763 5765 5766 5766 5768 5770 5771 5772 5774 5776 5777 5778 5780 5781 5783 5786 5790 5794 5799 5805 5807 5807 5810 5812 5813 5814 5814 5816 5816
5708 5712 5714 5718 5722 5725 5728 5732 5736 5739 5743 5746 5748 5749 5751 5752 5754 5755 5756 5756 5756 5758 5759 5760 5762 5762 5763 5766 5768 5771 5776 5780 5784 5791 5795 5796 5798 5800 5802 5803 5804 5805 5804
5697 5701 5705 5708 5711 5714 5718 5722 5725 5728 5731 5734 5736 5738 5740 5741 5742 5742 5742 5743 5743 5744 5744 5744 5745 5745 5746 5749 5753 5756 5759 5763 5769 5777 5782 5784 5786 5787 5790 5793 5794 5794 5793
5685 5690 5694 5698 5701 5704 5708 5711 5713 5716 5719 5722 5724 5727 5728 5729 5731 5731 5730 5730 5729 5730 5729 5728 5730 5730 5734 5735 5739 5740 5740 5745 5757 5764 5767 5772 5773 5777 5778 5780 5781 5782 5784
5673 5678 5682 5687 5691 5694 5698 5700 5703 5706 5709 5712 5714 5715 5716 5718 5718 5718 5718 5718 5717 5716 5716 5715 5715 5717 5720 5722 5723 5726 5729 5735 5745 5750 5754 5758 5763 5764 5765 5768 5770 5772 5773
5659 5665 5669 5673 5678 5682 5686 5690 5693 5696 5699 5701 5703 5705 5706 5707 5706 5706 5706 5706 5706 5705 5703 5701 5701 5702 5704 5708 5711 5715 5719 5727 5733 5738 5744 5748 5750 5752 5755 5758 5759 5760 5761
5646 5650 5655 5661 5665 5670 5674 5678 5681 5684 5687 5690 5692 5694 5695 5696 5697 5696 5695 5694 5694 5693 5691 5690 5689 5690 5691 5694 5699 5703 5709 5718 5725 5728 5732 5738 5739 5742 5744 5746 5747 5747 5748
5631 5636 5641 5647 5652 5656 5661 5665 5669 5672 5676 5679 5680 5683 5684 5685 5686 5686 5685 5683 5681 5682 5681 5680 5679 5678 5680 5685 5690 5694 5702 5709 5714 5718 5723 5728 5729 5730 5733 5733 5734 5735 5735
5616 5622 5627 5632 5638 5643 5647 5652 5656 5660 5663 5666 5669 5671 5673 5674 5676 5676 5674 5672 5670 5671 5670 5669 5668 5672 5669 5675 5684 5688 5693 5700 5704 5708 5713 5716 5717 5719 5722 5722 5722 5721 5719